Precipitable_Water
0.38 0.33 0.35 0.37 0.40 0.44 0.45 0.46 0.48 0.50 0.49 0.50 0.52 0.50 0.48 0.47 0.50 0.55 0.57 0.67 0.81 0.74 0.70 0.69 0.71 0.71 0.73 0.78 0.88 0.97 1.04 1.01 0.99 0.97 1.00 1.03 1.08 1.15 1.18 1.17 1.16 1.15 1.16 1.31 1.40 1.46 1.52 1.58 1.66 1.69 1.69 1.66 1.69 1.71 1.69 1.67 1.68 1.71 1.72 1.72 1.68 1.73 1.74 1.69 1.64 1.61 1.58 1.54 1.55 1.56 1.53 1.50 1.53 1.54 1.54 1.51 1.48 1.44 1.42 1.37 1.31 1.26 1.20 1.17 1.15 1.11
0.33 0.26 0.28 0.36 0.41 0.44 0.46 0.45 0.47 0.47 0.47 0.42 0.43 0.43 0.42 0.43 0.41 0.45 0.46 0.57 0.74 0.63 0.60 0.72 0.71 0.70 0.72 0.79 0.90 0.99 0.98 0.92 0.94 0.95 0.97 1.00 1.06 1.13 1.18 1.16 1.16 1.18 1.28 1.34 1.37 1.45 1.52 1.57 1.61 1.64 1.65 1.64 1.57 1.63 1.67 1.65 1.68 1.72 1.78 1.75 1.74 1.74 1.71 1.69 1.67 1.64 1.61 1.60 1.54 1.52 1.52 1.51 1.51 1.49 1.46 1.43 1.43 1.40 1.37 1.31 1.26 1.21 1.18 1.16 1.12 1.07
0.22 0.20 0.23 0.30 0.40 0.43 0.44 0.45 0.45 0.44 0.42 0.40 0.37 0.42 0.40 0.41 0.42 0.45 0.42 0.50 0.62 0.63 0.57 0.67 0.63 0.65 0.71 0.78 0.89 0.91 0.90 0.92 0.97 0.97 0.96 0.99 1.02 1.09 1.15 1.16 1.18 1.20 1.21 1.27 1.32 1.41 1.48 1.53 1.59 1.64 1.66 1.65 1.64 1.62 1.63 1.68 1.70 1.71 1.73 1.77 1.79 1.77 1.71 1.68 1.69 1.66 1.60 1.61 1.61 1.60 1.57 1.53 1.48 1.53 1.50 1.45 1.40 1.36 1.28 1.25 1.24 1.20 1.18 1.15 1.10 1.02
0.15 0.17 0.21 0.27 0.33 0.36 0.38 0.41 0.41 0.41 0.41 0.38 0.36 0.37 0.36 0.40 0.38 0.33 0.38 0.46 0.55 0.56 0.54 0.62 0.60 0.65 0.72 0.77 0.80 0.90 0.93 0.95 1.02 1.03 1.06 1.08 1.05 1.08 1.11 1.13 1.14 1.18 1.22 1.23 1.29 1.37 1.46 1.53 1.58 1.62 1.62 1.62 1.62 1.61 1.63 1.68 1.67 1.69 1.70 1.75 1.79 1.79 1.79 1.70 1.67 1.67 1.67 1.66 1.67 1.66 1.61 1.57 1.50 1.42 1.43 1.38 1.32 1.27 1.23 1.21 1.21 1.19 1.16 1.11 1.01 0.88
0.13 0.16 0.21 0.23 0.26 0.29 0.31 0.35 0.36 0.36 0.35 0.37 0.37 0.37 0.37 0.38 0.38 0.33 0.33 0.44 0.55 0.60 0.62 0.61 0.59 0.60 0.64 0.61 0.65 0.77 0.95 0.96 0.97 1.00 1.04 1.07 1.10 1.15 1.21 1.18 1.19 1.17 1.22 1.26 1.34 1.41 1.47 1.49 1.52 1.56 1.62 1.63 1.58 1.60 1.64 1.70 1.68 1.67 1.69 1.78 1.82 1.81 1.78 1.78 1.71 1.65 1.67 1.67 1.65 1.63 1.59 1.56 1.47 1.43 1.37 1.29 1.24 1.23 1.22 1.18 1.15 1.11 1.09 1.00 0.86 0.73
0.16 0.19 0.23 0.21 0.23 0.25 0.27 0.28 0.31 0.33 0.32 0.34 0.37 0.37 0.39 0.40 0.36 0.33 0.39 0.39 0.41 0.44 0.55 0.53 0.42 0.42 0.54 0.57 0.56 0.67 0.79 0.80 0.89 0.90 0.92 0.97 1.03 1.09 1.10 1.12 1.19 1.23 1.30 1.30 1.34 1.40 1.47 1.50 1.56 1.61 1.62 1.58 1.60 1.63 1.68 1.75 1.75 1.72 1.74 1.81 1.85 1.84 1.81 1.77 1.78 1.74 1.72 1.70 1.63 1.52 1.44 1.38 1.34 1.27 1.24 1.18 1.14 1.14 1.13 1.09 1.08 1.05 0.99 0.89 0.76 0.66
0.18 0.21 0.20 0.17 0.17 0.19 0.21 0.23 0.29 0.31 0.29 0.29 0.34 0.39 0.40 0.39 0.35 0.34 0.38 0.37 0.34 0.30 0.48 0.63 0.40 0.34 0.50 0.46 0.51 0.58 0.65 0.67 0.80 0.83 0.86 0.92 0.96 1.00 1.04 1.10 1.13 1.18 1.25 1.35 1.41 1.46 1.48 1.53 1.55 1.58 1.57 1.59 1.61 1.68 1.73 1.77 1.78 1.78 1.78 1.82 1.86 1.82 1.80 1.78 1.78 1.75 1.63 1.60 1.61 1.52 1.47 1.43 1.36 1.28 1.26 1.24 1.21 1.16 1.12 1.05 0.97 0.94 0.90 0.81 0.67 0.59
0.16 0.14 0.15 0.16 0.15 0.15 0.17 0.17 0.24 0.28 0.27 0.25 0.36 0.39 0.39 0.36 0.32 0.33 0.35 0.33 0.33 0.47 0.54 0.58 0.53 0.38 0.36 0.42 0.54 0.58 0.57 0.59 0.64 0.71 0.79 0.85 0.89 0.92 0.98 1.08 1.13 1.18 1.24 1.29 1.35 1.42 1.49 1.53 1.53 1.50 1.58 1.63 1.68 1.73 1.74 1.76 1.82 1.80 1.79 1.83 1.84 1.83 1.80 1.82 1.80 1.74 1.68 1.56 1.53 1.51 1.47 1.46 1.41 1.34 1.25 1.21 1.19 1.16 1.07 0.97 0.92 0.89 0.83 0.73 0.62 0.54
0.15 0.13 0.13 0.12 0.12 0.13 0.14 0.18 0.22 0.25 0.25 0.26 0.34 0.37 0.35 0.33 0.31 0.32 0.33 0.32 0.37 0.37 0.36 0.46 0.56 0.43 0.38 0.41 0.57 0.58 0.48 0.51 0.54 0.59 0.68 0.78 0.83 0.87 0.93 1.02 1.11 1.19 1.25 1.30 1.32 1.39 1.46 1.51 1.54 1.58 1.60 1.71 1.75 1.73 1.72 1.78 1.85 1.85 1.86 1.88 1.86 1.83 1.82 1.79 1.77 1.74 1.71 1.64 1.55 1.51 1.49 1.43 1.42 1.36 1.27 1.24 1.20 1.10 1.02 0.93 0.89 0.84 0.75 0.63 0.54 0.52
0.17 0.16 0.17 0.15 0.13 0.12 0.16 0.19 0.22 0.23 0.21 0.25 0.31 0.34 0.33 0.33 0.32 0.32 0.29 0.32 0.36 0.34 0.28 0.35 0.47 0.35 0.33 0.38 0.43 0.55 0.49 0.45 0.48 0.54 0.60 0.71 0.77 0.83 0.89 0.98 1.09 1.19 1.27 1.34 1.37 1.42 1.49 1.55 1.58 1.65 1.71 1.73 1.74 1.75 1.79 1.84 1.89 1.84 1.84 1.86 1.86 1.84 1.84 1.83 1.80 1.78 1.73 1.69 1.60 1.50 1.47 1.42 1.37 1.32 1.24 1.19 1.11 1.04 0.97 0.88 0.83 0.77 0.66 0.54 0.48 0.49
0.18 0.21 0.21 0.17 0.15 0.16 0.17 0.18 0.20 0.20 0.21 0.24 0.26 0.28 0.28 0.28 0.29 0.32 0.34 0.35 0.36 0.28 0.28 0.32 0.42 0.38 0.27 0.33 0.37 0.38 0.38 0.39 0.43 0.51 0.58 0.70 0.77 0.84 0.90 0.97 1.05 1.14 1.22 1.29 1.35 1.42 1.49 1.58 1.63 1.70 1.68 1.72 1.74 1.76 1.80 1.85 1.86 1.81 1.81 1.82 1.80 1.84 1.83 1.84 1.81 1.78 1.71 1.69 1.62 1.52 1.47 1.41 1.33 1.25 1.18 1.11 1.06 1.00 0.91 0.83 0.76 0.68 0.57 0.50 0.47 0.47
0.18 0.19 0.18 0.19 0.20 0.19 0.19 0.17 0.19 0.20 0.21 0.21 0.22 0.22 0.23 0.23 0.27 0.28 0.29 0.36 0.27 0.24 0.28 0.34 0.40 0.44 0.29 0.31 0.37 0.43 0.44 0.48 0.47 0.44 0.49 0.61 0.69 0.77 0.85 0.94 1.04 1.13 1.20 1.27 1.32 1.37 1.45 1.53 1.62 1.70 1.66 1.67 1.68 1.75 1.81 1.82 1.79 1.78 1.81 1.81 1.78 1.80 1.80 1.77 1.74 1.71 1.67 1.65 1.59 1.53 1.48 1.40 1.31 1.22 1.15 1.09 1.02 0.95 0.85 0.77 0.67 0.60 0.52 0.47 0.46 0.45
0.15 0.16 0.18 0.18 0.23 0.19 0.17 0.15 0.17 0.18 0.19 0.19 0.20 0.20 0.19 0.19 0.21 0.20 0.23 0.21 0.22 0.21 0.28 0.33 0.38 0.37 0.34 0.34 0.36 0.42 0.48 0.50 0.54 0.51 0.54 0.61 0.68 0.78 0.86 0.94 1.05 1.14 1.21 1.24 1.28 1.34 1.41 1.46 1.55 1.61 1.63 1.65 1.68 1.76 1.81 1.77 1.77 1.84 1.85 1.77 1.74 1.74 1.72 1.69 1.68 1.63 1.61 1.60 1.56 1.49 1.44 1.38 1.30 1.20 1.15 1.10 1.02 0.93 0.81 0.70 0.58 0.51 0.44 0.45 0.43 0.42
0.13 0.16 0.16 0.16 0.17 0.19 0.18 0.14 0.14 0.14 0.16 0.17 0.17 0.19 0.17 0.16 0.17 0.17 0.19 0.22 0.21 0.25 0.30 0.29 0.38 0.27 0.34 0.36 0.39 0.38 0.44 0.50 0.53 0.56 0.64 0.66 0.71 0.79 0.87 0.97 1.07 1.14 1.19 1.23 1.28 1.34 1.40 1.48 1.56 1.61 1.62 1.67 1.78 1.84 1.82 1.80 1.79 1.79 1.81 1.79 1.71 1.67 1.67 1.65 1.62 1.59 1.56 1.55 1.52 1.46 1.41 1.35 1.26 1.19 1.15 1.09 0.99 0.88 0.75 0.63 0.53 0.47 0.44 0.44 0.43 0.43
0.10 0.10 0.12 0.13 0.12 0.17 0.17 0.16 0.17 0.17 0.16 0.16 0.19 0.19 0.18 0.18 0.16 0.15 0.16 0.15 0.17 0.20 0.24 0.39 0.28 0.26 0.24 0.28 0.44 0.48 0.53 0.54 0.56 0.60 0.67 0.73 0.78 0.85 0.92 0.99 1.08 1.12 1.18 1.23 1.26 1.32 1.40 1.49 1.55 1.59 1.66 1.77 1.74 1.75 1.82 1.78 1.77 1.77 1.62 1.62 1.65 1.63 1.63 1.61 1.59 1.57 1.53 1.52 1.48 1.42 1.37 1.31 1.25 1.18 1.13 1.06 0.95 0.81 0.66 0.58 0.50 0.46 0.47 0.46 0.46 0.46
0.12 0.11 0.14 0.14 0.14 0.16 0.15 0.18 0.20 0.19 0.18 0.18 0.19 0.20 0.17 0.16 0.20 0.15 0.17 0.16 0.16 0.17 0.19 0.26 0.21 0.23 0.22 0.32 0.39 0.48 0.50 0.51 0.54 0.58 0.65 0.72 0.79 0.86 0.89 0.93 1.00 1.07 1.13 1.20 1.24 1.31 1.40 1.48 1.55 1.61 1.68 1.72 1.67 1.64 1.70 1.71 1.72 1.66 1.60 1.62 1.66 1.67 1.65 1.61 1.59 1.54 1.51 1.48 1.44 1.38 1.33 1.30 1.24 1.17 1.11 1.02 0.89 0.75 0.65 0.55 0.48 0.46 0.47 0.48 0.49 0.52
0.12 0.10 0.13 0.14 0.15 0.15 0.15 0.17 0.19 0.20 0.15 0.18 0.18 0.16 0.17 0.21 0.20 0.19 0.20 0.21 0.19 0.16 0.14 0.22 0.18 0.20 0.30 0.29 0.36 0.44 0.47 0.51 0.58 0.61 0.66 0.73 0.79 0.83 0.85 0.93 1.00 1.07 1.12 1.18 1.22 1.29 1.38 1.47 1.56 1.62 1.65 1.67 1.67 1.66 1.65 1.67 1.73 1.71 1.67 1.63 1.60 1.62 1.62 1.60 1.57 1.52 1.48 1.46 1.39 1.35 1.34 1.29 1.20 1.12 1.02 0.92 0.80 0.71 0.62 0.52 0.48 0.47 0.48 0.50 0.52 0.53
0.11 0.11 0.14 0.13 0.13 0.17 0.18 0.18 0.18 0.19 0.19 0.18 0.14 0.18 0.22 0.23 0.22 0.18 0.14 0.16 0.15 0.13 0.14 0.19 0.16 0.18 0.21 0.16 0.32 0.39 0.41 0.53 0.60 0.63 0.69 0.75 0.80 0.80 0.86 0.93 1.00 1.05 1.12 1.20 1.27 1.33 1.40 1.46 1.53 1.59 1.67 1.77 1.71 1.67 1.66 1.70 1.77 1.74 1.69 1.68 1.61 1.58 1.57 1.60 1.60 1.53 1.48 1.42 1.35 1.33 1.32 1.24 1.15 1.05 0.97 0.87 0.77 0.69 0.57 0.50 0.48 0.48 0.48 0.50 0.53 0.54
0.16 0.12 0.14 0.16 0.16 0.18 0.19 0.18 0.17 0.18 0.19 0.17 0.16 0.22 0.16 0.15 0.14 0.17 0.16 0.12 0.12 0.11 0.12 0.17 0.22 0.22 0.23 0.19 0.22 0.26 0.38 0.48 0.57 0.66 0.69 0.72 0.77 0.80 0.86 0.93 1.01 1.07 1.11 1.16 1.23 1.31 1.37 1.44 1.49 1.57 1.64 1.69 1.64 1.67 1.70 1.73 1.75 1.70 1.66 1.65 1.64 1.58 1.58 1.57 1.55 1.50 1.44 1.41 1.38 1.34 1.29 1.21 1.11 1.02 0.91 0.85 0.77 0.65 0.52 0.47 0.46 0.46 0.48 0.52 0.54 0.55
0.18 0.14 0.14 0.17 0.17 0.18 0.19 0.18 0.15 0.16 0.19 0.20 0.20 0.19 0.21 0.18 0.17 0.15 0.16 0.17 0.15 0.12 0.13 0.12 0.19 0.14 0.22 0.23 0.27 0.29 0.37 0.46 0.54 0.61 0.67 0.73 0.77 0.80 0.84 0.90 0.97 1.04 1.11 1.17 1.25 1.32 1.39 1.45 1.50 1.57 1.62 1.63 1.67 1.71 1.74 1.75 1.75 1.72 1.69 1.64 1.59 1.58 1.55 1.49 1.46 1.44 1.38 1.38 1.37 1.33 1.27 1.17 1.06 0.95 0.88 0.83 0.72 0.58 0.49 0.46 0.46 0.47 0.48 0.51 0.55 0.55
0.17 0.18 0.13 0.16 0.18 0.19 0.16 0.17 0.17 0.18 0.17 0.18 0.18 0.18 0.19 0.18 0.21 0.19 0.19 0.16 0.15 0.14 0.13 0.13 0.11 0.14 0.21 0.35 0.35 0.38 0.44 0.51 0.57 0.61 0.70 0.76 0.80 0.84 0.88 0.94 1.04 1.11 1.16 1.21 1.27 1.34 1.41 1.46 1.52 1.60 1.68 1.71 1.74 1.75 1.76 1.74 1.73 1.66 1.60 1.55 1.54 1.52 1.52 1.48 1.44 1.42 1.38 1.33 1.28 1.22 1.14 1.05 0.96 0.89 0.86 0.78 0.65 0.54 0.49 0.47 0.49 0.50 0.53 0.56 0.56 0.57
0.17 0.16 0.14 0.16 0.16 0.16 0.16 0.19 0.19 0.19 0.19 0.19 0.18 0.17 0.18 0.17 0.16 0.15 0.15 0.19 0.18 0.16 0.15 0.14 0.13 0.15 0.25 0.50 0.51 0.50 0.57 0.59 0.67 0.69 0.72 0.78 0.84 0.89 0.95 1.03 1.10 1.14 1.21 1.26 1.31 1.37 1.43 1.48 1.54 1.62 1.68 1.71 1.71 1.68 1.66 1.73 1.70 1.62 1.57 1.54 1.54 1.52 1.47 1.44 1.40 1.37 1.32 1.28 1.23 1.14 1.05 0.96 0.90 0.86 0.80 0.69 0.59 0.52 0.49 0.48 0.50 0.54 0.56 0.55 0.55 0.56
0.19 0.19 0.17 0.15 0.16 0.16 0.18 0.21 0.24 0.24 0.23 0.21 0.20 0.19 0.20 0.20 0.20 0.18 0.14 0.17 0.19 0.19 0.24 0.21 0.16 0.16 0.41 0.61 0.62 0.62 0.62 0.65 0.71 0.76 0.75 0.82 0.87 0.93 1.01 1.10 1.18 1.21 1.24 1.30 1.36 1.41 1.45 1.50 1.55 1.60 1.62 1.61 1.61 1.59 1.62 1.62 1.59 1.63 1.62 1.56 1.51 1.47 1.44 1.40 1.34 1.30 1.27 1.21 1.14 1.06 0.97 0.90 0.85 0.81 0.72 0.62 0.55 0.50 0.48 0.49 0.51 0.55 0.56 0.56 0.56 0.58
0.22 0.18 0.16 0.16 0.18 0.19 0.23 0.25 0.26 0.26 0.24 0.22 0.23 0.23 0.24 0.23 0.24 0.21 0.20 0.20 0.18 0.21 0.21 0.26 0.19 0.21 0.42 0.68 0.68 0.69 0.71 0.73 0.79 0.82 0.80 0.84 0.92 1.00 1.07 1.14 1.19 1.21 1.29 1.37 1.41 1.45 1.49 1.52 1.56 1.58 1.57 1.58 1.56 1.58 1.59 1.56 1.55 1.61 1.56 1.52 1.46 1.41 1.36 1.30 1.27 1.25 1.20 1.15 1.08 1.00 0.92 0.86 0.82 0.76 0.67 0.58 0.52 0.49 0.49 0.50 0.53 0.56 0.57 0.58 0.58 0.57
0.17 0.19 0.17 0.15 0.15 0.17 0.20 0.22 0.25 0.29 0.27 0.25 0.26 0.29 0.29 0.27 0.26 0.26 0.24 0.24 0.19 0.22 0.22 0.21 0.19 0.24 0.47 0.70 0.74 0.75 0.74 0.73 0.78 0.88 0.93 0.89 0.97 1.06 1.12 1.18 1.24 1.29 1.33 1.36 1.39 1.43 1.47 1.50 1.50 1.51 1.56 1.55 1.60 1.62 1.58 1.52 1.55 1.55 1.49 1.42 1.36 1.33 1.29 1.24 1.23 1.18 1.15 1.09 1.01 0.94 0.88 0.81 0.76 0.68 0.60 0.53 0.51 0.49 0.50 0.51 0.54 0.57 0.57 0.58 0.58 0.60
0.17 0.19 0.16 0.14 0.13 0.12 0.13 0.13 0.17 0.20 0.23 0.27 0.27 0.31 0.30 0.25 0.25 0.24 0.21 0.23 0.19 0.27 0.31 0.27 0.26 0.32 0.53 0.70 0.72 0.78 0.80 0.80 0.88 0.95 1.04 1.07 1.07 1.12 1.18 1.23 1.28 1.33 1.37 1.40 1.41 1.43 1.44 1.48 1.51 1.52 1.54 1.58 1.56 1.55 1.55 1.54 1.53 1.49 1.41 1.35 1.34 1.30 1.23 1.21 1.18 1.16 1.09 1.01 0.92 0.84 0.76 0.69 0.65 0.59 0.54 0.51 0.50 0.50 0.51 0.53 0.54 0.56 0.57 0.58 0.58 0.60
0.19 0.21 0.18 0.17 0.17 0.16 0.18 0.20 0.25 0.27 0.26 0.24 0.27 0.29 0.28 0.28 0.29 0.28 0.28 0.25 0.22 0.33 0.31 0.33 0.32 0.34 0.41 0.57 0.67 0.77 0.82 0.81 0.84 0.95 1.00 1.06 1.14 1.21 1.25 1.28 1.33 1.38 1.40 1.41 1.42 1.44 1.47 1.46 1.46 1.49 1.56 1.56 1.55 1.54 1.53 1.52 1.49 1.42 1.37 1.34 1.30 1.24 1.20 1.18 1.16 1.12 1.03 0.96 0.87 0.77 0.68 0.62 0.57 0.54 0.51 0.50 0.50 0.52 0.54 0.56 0.57 0.58 0.57 0.59 0.59 0.60
0.21 0.19 0.21 0.21 0.21 0.21 0.23 0.24 0.28 0.29 0.28 0.29 0.30 0.30 0.34 0.31 0.31 0.29 0.27 0.28 0.37 0.31 0.27 0.37 0.43 0.38 0.42 0.55 0.67 0.72 0.82 0.88 0.94 1.00 1.07 1.14 1.21 1.25 1.30 1.34 1.37 1.39 1.42 1.44 1.44 1.44 1.44 1.46 1.46 1.49 1.54 1.54 1.53 1.53 1.51 1.51 1.45 1.38 1.33 1.28 1.24 1.22 1.19 1.18 1.13 1.07 0.99 0.92 0.84 0.75 0.65 0.59 0.55 0.51 0.51 0.51 0.52 0.53 0.55 0.58 0.60 0.60 0.61 0.62 0.61 0.62
0.22 0.20 0.25 0.23 0.24 0.25 0.26 0.27 0.30 0.33 0.35 0.35 0.35 0.35 0.34 0.36 0.34 0.31 0.34 0.39 0.40 0.31 0.28 0.35 0.41 0.39 0.48 0.58 0.70 0.78 0.85 0.90 0.98 1.06 1.16 1.25 1.31 1.34 1.33 1.32 1.32 1.34 1.39 1.41 1.44 1.46 1.46 1.44 1.44 1.49 1.51 1.50 1.51 1.51 1.50 1.44 1.39 1.34 1.32 1.30 1.25 1.20 1.18 1.18 1.11 1.04 0.97 0.91 0.82 0.74 0.67 0.59 0.53 0.52 0.52 0.52 0.52 0.53 0.56 0.59 0.62 0.64 0.63 0.63 0.64 0.67
0.27 0.25 0.27 0.26 0.25 0.26 0.28 0.31 0.35 0.36 0.35 0.36 0.36 0.37 0.39 0.38 0.38 0.39 0.39 0.43 0.41 0.38 0.40 0.40 0.42 0.43 0.54 0.63 0.75 0.85 0.99 1.04 1.12 1.21 1.24 1.26 1.29 1.34 1.35 1.31 1.32 1.34 1.37 1.39 1.42 1.44 1.45 1.43 1.43 1.47 1.48 1.49 1.51 1.51 1.45 1.38 1.34 1.33 1.30 1.25 1.22 1.18 1.19 1.16 1.09 1.03 0.95 0.88 0.82 0.74 0.66 0.56 0.52 0.51 0.51 0.51 0.52 0.53 0.57 0.59 0.62 0.63 0.62 0.63 0.65 0.67
0.28 0.28 0.34 0.28 0.27 0.28 0.34 0.38 0.38 0.39 0.35 0.32 0.39 0.40 0.40 0.40 0.40 0.43 0.44 0.46 0.50 0.44 0.47 0.45 0.43 0.41 0.62 0.77 0.85 0.99 1.06 1.15 1.17 1.17 1.21 1.29 1.34 1.33 1.30 1.29 1.30 1.33 1.36 1.39 1.40 1.41 1.39 1.38 1.43 1.45 1.46 1.48 1.49 1.47 1.42 1.39 1.37 1.33 1.27 1.23 1.21 1.19 1.19 1.14 1.07 1.00 0.92 0.87 0.82 0.72 0.62 0.55 0.51 0.50 0.47 0.49 0.51 0.53 0.56 0.57 0.59 0.62 0.63 0.65 0.67 0.69
0.33 0.30 0.35 0.31 0.28 0.29 0.36 0.39 0.41 0.43 0.39 0.36 0.36 0.38 0.38 0.38 0.35 0.39 0.39 0.47 0.42 0.38 0.44 0.43 0.40 0.40 0.63 0.81 0.92 0.97 1.00 1.04 1.06 1.11 1.16 1.23 1.29 1.30 1.25 1.26 1.28 1.32 1.34 1.35 1.35 1.35 1.36 1.34 1.35 1.39 1.43 1.46 1.47 1.45 1.41 1.38 1.36 1.31 1.24 1.25 1.23 1.22 1.19 1.12 1.05 0.95 0.89 0.88 0.83 0.73 0.64 0.58 0.54 0.50 0.48 0.49 0.50 0.51 0.54 0.56 0.58 0.60 0.63 0.65 0.67 0.72
0.33 0.31 0.30 0.31 0.27 0.29 0.38 0.43 0.41 0.41 0.39 0.33 0.35 0.39 0.41 0.43 0.43 0.45 0.48 0.52 0.52 0.49 0.41 0.36 0.41 0.55 0.66 0.82 0.79 0.88 0.94 1.03 1.09 1.12 1.16 1.22 1.27 1.29 1.27 1.25 1.28 1.32 1.31 1.30 1.30 1.32 1.36 1.34 1.36 1.40 1.45 1.48 1.46 1.41 1.40 1.38 1.32 1.27 1.29 1.28 1.25 1.23 1.15 1.08 1.00 0.92 0.89 0.88 0.82 0.74 0.67 0.61 0.56 0.51 0.49 0.48 0.50 0.50 0.52 0.54 0.57 0.60 0.62 0.63 0.69 0.74
0.36 0.34 0.33 0.36 0.28 0.31 0.39 0.41 0.43 0.36 0.27 0.29 0.46 0.53 0.52 0.44 0.45 0.41 0.40 0.46 0.55 0.55 0.52 0.55 0.55 0.68 0.74 0.79 0.79 0.83 0.90 0.99 1.08 1.20 1.28 1.26 1.23 1.24 1.28 1.28 1.29 1.30 1.31 1.33 1.34 1.35 1.40 1.43 1.42 1.44 1.47 1.47 1.44 1.42 1.41 1.37 1.32 1.33 1.35 1.31 1.26 1.18 1.13 1.05 0.97 0.90 0.89 0.89 0.84 0.75 0.70 0.64 0.58 0.53 0.51 0.50 0.49 0.49 0.51 0.54 0.56 0.60 0.64 0.66 0.69 0.72
0.34 0.35 0.34 0.36 0.30 0.31 0.41 0.41 0.34 0.26 0.28 0.46 0.53 0.58 0.58 0.55 0.53 0.49 0.52 0.56 0.60 0.63 0.66 0.63 0.63 0.66 0.78 0.85 0.90 0.96 1.05 1.15 1.23 1.23 1.26 1.34 1.32 1.27 1.23 1.24 1.28 1.31 1.31 1.34 1.35 1.37 1.42 1.47 1.46 1.44 1.43 1.42 1.41 1.40 1.39 1.34 1.33 1.34 1.33 1.27 1.20 1.16 1.10 1.03 0.95 0.90 0.89 0.87 0.84 0.77 0.68 0.64 0.60 0.55 0.52 0.50 0.50 0.50 0.52 0.54 0.58 0.61 0.63 0.66 0.70 0.72
0.37 0.35 0.37 0.35 0.36 0.40 0.38 0.37 0.26 0.29 0.45 0.52 0.58 0.63 0.67 0.63 0.61 0.56 0.50 0.55 0.61 0.63 0.66 0.60 0.65 0.74 0.84 0.91 0.99 1.08 1.11 1.18 1.23 1.27 1.29 1.32 1.32 1.26 1.22 1.22 1.28 1.34 1.35 1.40 1.39 1.38 1.42 1.44 1.42 1.43 1.44 1.45 1.43 1.40 1.37 1.35 1.36 1.34 1.29 1.25 1.18 1.14 1.08 1.01 0.95 0.89 0.89 0.87 0.85 0.79 0.70 0.63 0.60 0.57 0.53 0.49 0.49 0.50 0.51 0.54 0.58 0.59 0.63 0.68 0.72 0.76
0.42 0.41 0.38 0.35 0.40 0.32 0.36 0.36 0.33 0.47 0.46 0.50 0.51 0.55 0.58 0.52 0.53 0.48 0.38 0.44 0.57 0.68 0.67 0.65 0.71 0.78 0.88 0.97 1.02 1.08 1.14 1.15 1.07 1.12 1.27 1.27 1.29 1.32 1.29 1.28 1.35 1.39 1.44 1.47 1.46 1.44 1.50 1.54 1.52 1.51 1.51 1.48 1.45 1.39 1.35 1.34 1.36 1.32 1.25 1.18 1.12 1.06 1.04 1.08 1.02 0.97 0.91 0.87 0.86 0.81 0.73 0.65 0.60 0.58 0.55 0.49 0.47 0.49 0.51 0.54 0.58 0.60 0.67 0.68 0.72 0.73
0.45 0.37 0.42 0.33 0.38 0.38 0.34 0.34 0.37 0.37 0.32 0.41 0.53 0.65 0.70 0.71 0.68 0.67 0.54 0.46 0.59 0.70 0.76 0.73 0.71 0.79 0.86 0.94 0.99 1.05 1.11 0.94 0.82 0.88 1.14 1.25 1.32 1.33 1.36 1.39 1.45 1.49 1.52 1.54 1.56 1.55 1.56 1.58 1.61 1.64 1.55 1.51 1.46 1.42 1.39 1.34 1.33 1.28 1.21 1.18 1.14 1.08 1.18 1.18 1.10 1.02 0.93 0.89 0.88 0.82 0.75 0.66 0.61 0.58 0.55 0.50 0.46 0.48 0.52 0.57 0.60 0.64 0.70 0.68 0.70 0.70
0.45 0.43 0.42 0.34 0.35 0.35 0.33 0.29 0.32 0.30 0.35 0.47 0.54 0.62 0.71 0.75 0.73 0.74 0.55 0.43 0.59 0.68 0.80 0.79 0.76 0.82 0.85 0.88 0.94 1.01 0.89 0.72 0.74 0.87 1.13 1.22 1.29 1.34 1.33 1.38 1.44 1.53 1.57 1.61 1.60 1.60 1.66 1.62 1.60 1.59 1.60 1.54 1.45 1.45 1.43 1.36 1.30 1.25 1.23 1.19 1.15 1.12 1.11 1.11 1.04 0.96 0.93 0.91 0.88 0.82 0.74 0.68 0.63 0.60 0.55 0.50 0.49 0.52 0.54 0.57 0.61 0.67 0.72 0.72 0.73 0.73
0.40 0.39 0.38 0.33 0.32 0.33 0.31 0.30 0.32 0.39 0.40 0.49 0.58 0.64 0.72 0.79 0.76 0.62 0.38 0.38 0.58 0.71 0.81 0.81 0.78 0.81 0.88 0.95 1.00 0.95 0.84 0.69 0.76 0.95 1.14 1.21 1.28 1.34 1.34 1.38 1.44 1.50 1.47 1.40 1.49 1.52 1.64 1.65 1.59 1.56 1.52 1.47 1.45 1.46 1.39 1.32 1.25 1.22 1.22 1.19 1.14 1.09 1.08 1.08 1.03 0.99 0.96 0.93 0.88 0.81 0.73 0.67 0.64 0.61 0.57 0.55 0.55 0.57 0.60 0.63 0.65 0.68 0.70 0.73 0.74 0.75
0.35 0.36 0.35 0.30 0.30 0.33 0.32 0.34 0.40 0.43 0.53 0.61 0.64 0.69 0.73 0.78 0.66 0.44 0.35 0.46 0.66 0.75 0.83 0.85 0.84 0.88 0.94 0.93 0.98 0.84 0.97 1.02 1.09 1.15 1.17 1.25 1.29 1.35 1.44 1.51 1.54 1.55 1.56 1.55 1.56 1.63 1.65 1.64 1.56 1.52 1.54 1.50 1.46 1.43 1.37 1.28 1.21 1.18 1.18 1.14 1.09 1.08 1.12 1.11 1.06 1.01 0.98 0.92 0.83 0.77 0.71 0.66 0.64 0.61 0.60 0.60 0.60 0.62 0.64 0.65 0.65 0.68 0.70 0.72 0.75 0.76
0.37 0.37 0.38 0.35 0.30 0.29 0.35 0.34 0.37 0.43 0.56 0.67 0.71 0.71 0.76 0.59 0.43 0.42 0.58 0.77 0.78 0.81 0.89 0.91 0.89 0.95 0.98 0.97 0.99 1.01 1.09 1.19 1.23 1.23 1.21 1.24 1.27 1.36 1.45 1.50 1.56 1.59 1.61 1.66 1.71 1.66 1.58 1.64 1.59 1.54 1.49 1.48 1.44 1.41 1.36 1.27 1.19 1.18 1.14 1.09 1.09 1.14 1.17 1.11 1.04 1.02 0.97 0.86 0.79 0.72 0.67 0.65 0.64 0.65 0.63 0.61 0.62 0.62 0.62 0.66 0.69 0.70 0.73 0.75 0.75 0.74
0.36 0.31 0.30 0.30 0.37 0.39 0.39 0.36 0.35 0.31 0.54 0.69 0.71 0.67 0.74 0.50 0.56 0.75 0.83 0.89 0.91 0.89 0.90 0.94 0.95 1.00 1.03 1.01 1.11 1.12 1.15 1.18 1.20 1.22 1.24 1.28 1.34 1.41 1.47 1.50 1.45 1.39 1.44 1.47 1.52 1.58 1.56 1.54 1.57 1.54 1.42 1.38 1.37 1.37 1.32 1.24 1.15 1.11 1.10 1.09 1.16 1.18 1.14 1.09 1.05 1.00 0.90 0.80 0.74 0.67 0.64 0.65 0.64 0.64 0.68 0.66 0.62 0.61 0.61 0.67 0.69 0.71 0.74 0.74 0.74 0.73
0.47 0.33 0.34 0.37 0.42 0.34 0.35 0.32 0.34 0.45 0.63 0.78 0.70 0.55 0.68 0.72 0.83 0.88 0.86 0.82 0.94 0.96 0.92 0.93 0.99 1.04 1.09 1.07 1.10 1.14 1.17 1.18 1.22 1.24 1.24 1.29 1.38 1.47 1.46 1.48 1.44 1.42 1.42 1.47 1.56 1.60 1.58 1.55 1.54 1.47 1.38 1.30 1.29 1.28 1.26 1.20 1.12 1.11 1.11 1.13 1.21 1.19 1.12 1.07 1.04 0.94 0.81 0.75 0.69 0.64 0.63 0.63 0.65 0.67 0.67 0.65 0.64 0.60 0.60 0.65 0.68 0.70 0.71 0.72 0.71 0.70
0.49 0.40 0.41 0.34 0.51 0.41 0.40 0.49 0.64 0.74 0.77 0.82 0.82 0.77 0.82 0.92 0.94 0.95 0.94 0.91 0.89 0.94 1.04 0.98 1.01 1.08 1.12 1.14 1.15 1.15 1.14 1.19 1.20 1.25 1.22 1.28 1.37 1.42 1.44 1.48 1.52 1.47 1.43 1.44 1.49 1.50 1.48 1.45 1.40 1.40 1.32 1.24 1.21 1.23 1.22 1.20 1.14 1.16 1.12 1.17 1.20 1.14 1.08 1.05 0.96 0.82 0.75 0.70 0.64 0.61 0.65 0.64 0.63 0.66 0.69 0.69 0.65 0.61 0.60 0.62 0.65 0.64 0.67 0.68 0.68 0.69
0.57 0.57 0.59 0.48 0.50 0.64 0.70 0.72 0.81 0.80 0.83 0.86 0.92 0.95 0.91 0.95 1.02 1.00 0.95 0.90 0.95 1.00 1.03 0.99 1.03 1.07 1.11 1.17 1.11 1.15 1.15 1.20 1.22 1.25 1.28 1.32 1.35 1.41 1.47 1.49 1.51 1.52 1.48 1.46 1.46 1.44 1.40 1.36 1.34 1.29 1.21 1.18 1.17 1.16 1.20 1.21 1.21 1.17 1.18 1.22 1.19 1.13 1.09 1.00 0.85 0.77 0.71 0.65 0.62 0.61 0.64 0.63 0.64 0.67 0.70 0.71 0.70 0.67 0.66 0.64 0.64 0.64 0.66 0.67 0.68 0.70
0.58 0.60 0.54 0.44 0.62 0.48 0.43 0.68 0.72 0.74 0.84 0.89 0.89 0.99 1.05 1.04 1.02 1.04 0.98 0.96 0.96 1.01 1.03 1.10 1.10 1.12 1.15 1.17 1.17 1.16 1.19 1.25 1.25 1.28 1.28 1.29 1.32 1.37 1.42 1.43 1.45 1.48 1.47 1.42 1.42 1.36 1.26 1.22 1.19 1.19 1.19 1.15 1.16 1.15 1.20 1.26 1.28 1.25 1.22 1.19 1.16 1.10 0.98 0.84 0.79 0.73 0.67 0.62 0.62 0.63 0.64 0.63 0.63 0.64 0.67 0.69 0.70 0.71 0.70 0.69 0.67 0.66 0.67 0.70 0.70 0.71
0.44 0.64 0.50 0.51 0.53 0.43 0.46 0.63 0.73 0.82 0.85 0.90 0.92 0.90 0.91 0.97 1.00 1.03 1.04 1.04 1.05 1.10 1.11 1.15 1.18 1.17 1.23 1.19 1.23 1.21 1.23 1.30 1.25 1.20 1.19 1.24 1.30 1.36 1.39 1.41 1.42 1.41 1.41 1.37 1.34 1.27 1.22 1.18 1.14 1.14 1.17 1.15 1.25 1.30 1.28 1.25 1.21 1.22 1.21 1.16 1.06 0.94 0.84 0.78 0.75 0.67 0.61 0.61 0.62 0.61 0.59 0.59 0.61 0.63 0.62 0.64 0.65 0.65 0.66 0.68 0.70 0.69 0.68 0.70 0.72 0.72
0.58 0.61 0.46 0.57 0.50 0.59 0.65 0.70 0.74 0.78 0.79 0.84 0.92 0.98 0.98 0.98 0.98 1.00 1.05 1.06 1.09 1.10 1.14 1.20 1.23 1.22 1.24 1.25 1.28 1.27 1.24 1.25 1.21 1.16 1.18 1.24 1.30 1.33 1.35 1.36 1.36 1.31 1.26 1.22 1.20 1.18 1.13 1.15 1.13 1.13 1.17 1.17 1.23 1.22 1.16 1.14 1.15 1.13 1.05 0.98 0.90 0.82 0.76 0.72 0.68 0.61 0.60 0.61 0.62 0.58 0.58 0.57 0.58 0.59 0.59 0.61 0.64 0.67 0.69 0.69 0.70 0.72 0.75 0.81 0.83 0.81
0.55 0.46 0.59 0.56 0.46 0.46 0.47 0.58 0.70 0.54 0.57 0.73 0.83 0.91 0.96 1.03 1.02 1.02 1.06 1.07 1.11 1.12 1.17 1.16 1.22 1.31 1.32 1.34 1.31 1.29 1.21 1.17 1.18 1.21 1.21 1.26 1.27 1.28 1.31 1.30 1.28 1.20 1.14 1.13 1.11 1.11 1.12 1.13 1.20 1.20 1.18 1.18 1.19 1.15 1.12 1.09 1.03 0.98 0.91 0.87 0.82 0.77 0.71 0.66 0.62 0.58 0.57 0.59 0.59 0.57 0.56 0.55 0.55 0.58 0.61 0.63 0.65 0.68 0.72 0.80 0.82 0.82 0.79 0.80 0.86 0.88
0.51 0.55 0.56 0.49 0.46 0.48 0.63 0.71 0.78 0.75 0.75 0.81 0.88 0.96 1.00 1.04 1.04 1.02 1.06 1.10 1.16 1.21 1.23 1.21 1.20 1.25 1.28 1.33 1.37 1.28 1.21 1.18 1.19 1.25 1.23 1.22 1.25 1.28 1.28 1.24 1.16 1.10 1.06 1.07 1.05 1.04 1.06 1.13 1.19 1.15 1.09 1.03 1.03 0.99 0.94 0.91 0.89 0.87 0.85 0.84 0.80 0.73 0.66 0.63 0.58 0.56 0.55 0.57 0.56 0.55 0.54 0.54 0.56 0.60 0.63 0.66 0.67 0.69 0.71 0.73 0.79 0.84 0.85 0.85 0.86 0.86
Wind_Speed
11 12 12 12 12 11 10 10 9 7 5 5 5 6 7 8 9 9 9 8 6 7 10 10 9 8 6 6 6 5 5 6 6 5 5 6 6 6 5 6 7 6 6 5 5 5 4 4 4 3 3 3 3 3 4 4 4 4 3 3 3 4 4 4 4 3 3 3 3 3 4 4 5 5 6 7 8 9 10 11 12 13 14 15 15 15
12 13 15 15 14 12 12 11 10 8 7 6 6 7 8 8 9 9 8 8 7 9 11 10 10 10 8 8 7 6 5 6 7 6 6 7 7 6 6 7 7 6 6 5 5 5 4 4 4 4 4 3 4 4 4 4 4 4 4 3 3 4 4 4 4 4 4 4 3 4 4 4 5 6 7 7 8 9 10 11 13 14 14 15 16 16
14 15 17 16 14 11 11 12 11 11 10 9 9 9 9 9 10 10 9 8 8 10 11 10 11 12 10 9 8 8 8 8 8 8 7 8 8 7 7 7 7 6 6 6 6 5 5 5 4 4 4 4 4 4 4 5 5 5 4 4 4 4 4 4 4 4 4 4 4 4 4 5 6 6 7 8 8 9 10 12 13 14 15 15 16 16
15 16 16 16 14 13 13 13 12 12 11 11 10 10 10 10 9 10 11 9 8 9 10 10 11 12 11 10 9 10 10 9 9 9 8 8 9 9 8 8 8 7 7 7 7 6 6 5 5 5 5 5 4 4 5 5 5 5 5 5 5 5 5 4 4 5 5 4 4 4 5 5 6 6 7 8 9 10 11 12 13 14 15 16 16 16
17 17 15 14 14 15 15 15 13 13 13 13 12 11 11 11 10 11 11 10 9 10 10 9 10 13 12 10 10 10 10 11 10 9 9 9 9 9 9 9 9 9 8 8 8 7 7 6 6 6 6 6 5 5 6 6 6 6 6 6 5 5 5 5 5 5 5 4 4 4 5 5 6 7 7 8 9 11 12 13 14 15 15 16 15 15
17 17 15 15 16 16 16 17 15 15 15 15 14 13 13 13 12 10 9 9 9 11 11 9 9 12 12 11 12 9 9 11 11 10 10 9 9 9 9 9 10 9 9 9 9 8 8 8 7 7 7 7 7 6 6 6 6 6 6 6 6 6 6 6 5 5 6 6 6 5 6 6 7 7 8 9 10 11 13 13 14 15 15 15 14 14
15 15 15 16 17 16 17 18 16 15 15 15 15 13 13 13 11 9 8 8 8 10 11 10 10 11 11 12 12 9 9 12 11 11 11 10 9 10 10 10 10 10 10 9 9 9 9 9 8 8 8 8 7 7 7 7 7 7 7 6 6 6 6 6 6 6 6 7 7 6 7 7 7 8 9 9 11 12 13 13 14 14 14 14 13 13
13 14 14 16 16 17 17 17 17 16 15 15 14 13 12 13 11 10 10 10 10 10 10 9 10 11 11 12 11 9 10 12 13 13 12 11 11 11 11 11 10 10 10 10 10 10 10 9 9 9 9 8 8 7 7 7 7 7 7 6 6 7 7 7 7 7 7 7 7 7 7 8 8 9 9 10 11 12 13 13 13 14 13 13 13 13
13 13 14 15 16 17 17 16 16 16 16 16 15 13 13 13 13 11 11 12 11 10 10 11 10 10 12 13 11 9 11 13 14 14 14 13 12 12 11 11 11 11 10 11 10 10 10 10 9 9 9 8 8 8 8 7 7 7 7 7 7 7 7 7 7 8 8 7 7 7 7 8 8 9 9 10 11 12 12 13 13 13 13 13 13 13
14 14 14 14 14 16 16 16 16 16 16 16 14 13 12 11 12 11 11 12 11 10 11 12 11 10 11 12 10 9 12 14 12 12 13 13 13 12 11 11 11 10 10 11 11 11 11 11 10 10 9 9 9 9 8 7 7 7 7 7 7 7 7 7 8 8 8 7 7 8 8 8 8 9 10 11 11 12 12 12 12 12 12 12 12 12
16 15 14 13 14 15 16 16 16 17 16 14 13 13 12 12 12 12 12 11 10 11 13 13 12 11 11 12 11 10 12 12 10 10 11 11 11 12 11 11 11 10 10 11 11 11 11 11 11 10 10 10 10 9 8 8 8 8 8 7 7 7 7 7 7 8 7 7 8 8 8 8 9 9 10 10 11 11 11 12 12 11 11 11 12 12
16 15 15 15 16 15 14 14 15 15 14 13 12 13 12 13 13 12 12 11 10 12 14 12 11 12 12 13 12 12 12 10 9 11 10 9 10 11 11 11 10 10 10 11 11 11 11 11 11 11 12 11 10 10 10 9 9 10 9 7 6 6 7 7 7 7 7 7 8 8 8 9 9 9 10 10 10 11 11 11 11 10 10 10 11 11
16 16 15 15 15 15 14 14 14 13 12 12 12 11 11 12 11 11 12 11 12 13 13 12 10 11 14 15 15 14 14 12 12 12 9 7 9 10 10 10 10 10 10 11 11 11 12 12 12 13 12 12 12 11 10 10 10 10 8 5 5 6 7 7 7 6 7 8 8 8 8 9 9 9 10 10 10 11 11 11 10 9 9 10 10 11
14 15 14 13 14 15 14 14 14 13 12 12 12 12 12 11 10 12 12 12 13 14 13 12 11 12 14 15 15 14 14 14 15 13 10 8 9 10 10 10 9 10 10 10 11 11 12 13 13 13 13 13 12 11 10 10 10 8 6 6 6 7 7 7 6 6 7 7 8 8 9 9 9 10 10 10 10 11 11 10 9 9 9 9 9 10
12 12 13 13 12 13 15 15 14 12 12 12 12 11 12 11 10 12 12 12 13 12 12 12 11 12 12 12 12 12 12 13 13 12 10 8 9 9 10 9 9 9 10 10 10 10 11 12 13 13 13 12 11 11 10 10 9 7 7 7 7 7 6 6 6 6 7 7 8 9 9 9 9 10 11 10 10 10 10 9 8 8 9 9 9 9
11 12 13 12 11 11 13 14 13 11 11 12 11 10 12 12 11 11 11 11 11 11 11 12 13 13 13 13 12 11 10 11 10 9 7 7 8 9 9 9 9 9 9 9 9 10 11 12 13 13 13 12 11 10 10 10 9 8 8 7 7 7 7 6 6 6 7 8 8 8 8 9 10 10 10 10 10 10 9 9 8 8 9 9 9 9
9 11 10 9 9 10 11 12 12 12 11 10 10 12 12 11 9 9 10 10 9 10 11 11 12 13 12 12 10 8 8 8 7 6 6 7 8 8 8 8 8 9 9 9 9 9 10 11 12 13 13 12 11 10 10 9 10 9 8 7 7 7 7 6 6 6 7 8 8 8 8 9 10 10 10 10 10 9 8 8 8 8 8 9 9 9
8 9 8 7 9 9 9 10 10 12 11 10 11 12 10 9 8 9 9 8 8 9 11 10 10 11 9 9 8 7 7 7 7 6 5 6 7 7 7 8 8 8 8 9 9 9 9 10 11 12 12 12 11 10 10 9 9 9 8 8 7 7 7 7 6 6 7 8 8 8 8 9 10 10 10 10 9 8 7 7 7 8 8 8 9 9
8 7 7 8 8 7 6 7 9 11 11 11 12 10 9 9 9 9 8 8 8 8 9 9 10 10 9 9 9 8 7 7 7 7 6 6 7 7 7 8 9 9 9 9 9 9 9 10 11 11 11 12 11 10 9 9 9 8 8 8 7 7 7 6 6 6 7 8 8 8 9 9 10 10 10 9 8 7 6 6 7 7 7 8 8 9
8 7 7 8 8 5 4 5 8 10 10 11 11 10 9 9 9 9 8 8 8 8 8 9 8 8 9 10 9 10 9 8 7 7 7 7 8 8 8 9 9 9 9 9 9 9 9 9 10 11 11 12 11 9 9 9 8 8 8 7 7 7 6 6 6 7 7 8 8 9 9 10 10 10 9 8 7 6 6 6 6 6 7 8 8 9
9 9 8 8 6 5 5 6 7 8 9 9 10 10 10 9 8 8 8 7 7 7 7 8 8 9 9 8 8 10 10 9 8 8 8 9 8 9 9 9 9 9 9 9 9 9 9 8 9 10 11 12 11 9 9 9 8 8 7 7 6 6 6 6 7 7 8 8 9 9 9 10 10 9 8 8 7 6 6 5 5 6 7 8 8 8
11 11 10 8 6 5 7 8 8 8 8 8 9 9 10 10 9 8 8 9 8 7 7 7 8 10 10 8 9 10 9 9 9 9 9 9 9 9 9 9 9 9 9 10 10 9 9 8 8 9 11 12 10 9 9 9 8 8 7 6 6 6 6 7 8 8 8 9 9 9 9 9 9 8 8 8 7 6 6 5 5 6 7 7 8 8
11 11 10 10 9 8 8 8 8 8 8 7 7 8 8 8 8 8 9 9 8 7 7 6 7 10 10 9 10 10 9 8 9 9 9 9 9 9 9 9 9 9 9 10 9 9 8 8 8 9 10 11 10 8 8 8 8 7 7 6 6 7 7 8 8 8 8 9 9 9 9 8 8 8 8 7 6 6 6 5 6 6 7 7 8 8
11 10 10 9 9 8 7 6 7 8 7 6 7 7 7 7 7 8 10 9 7 7 7 6 8 10 10 9 9 9 8 7 8 8 8 9 10 10 10 9 9 9 9 9 9 9 9 8 9 10 10 10 10 8 7 8 7 6 6 6 6 7 8 8 8 8 8 8 8 8 8 8 8 8 7 7 6 6 6 6 6 7 7 7 8 8
12 11 10 8 6 6 6 6 6 7 6 6 8 8 8 7 6 7 8 7 8 8 7 6 8 10 9 9 8 8 7 7 7 8 9 10 10 10 10 9 9 9 9 9 9 9 9 9 10 10 10 9 9 8 8 8 7 6 7 7 7 8 8 8 8 7 8 8 8 8 8 8 8 8 7 7 6 6 6 6 7 7 7 8 8 9
11 10 10 9 8 8 8 8 8 8 7 7 8 8 8 7 6 7 7 6 7 8 6 6 8 10 9 7 7 7 7 6 6 8 9 9 9 9 9 9 9 9 9 9 10 10 10 10 10 10 10 9 9 9 9 8 7 7 7 8 8 8 8 7 7 7 7 8 8 8 8 8 8 8 7 7 7 7 7 7 7 8 8 8 9 9
8 8 9 9 10 10 10 10 9 8 7 8 8 7 8 7 6 6 6 7 7 7 7 9 8 9 8 6 6 7 7 7 7 7 8 8 8 8 8 9 9 10 10 11 11 11 11 11 11 10 10 10 9 9 9 8 8 8 8 8 8 8 8 7 7 7 7 7 8 8 8 8 8 8 7 7 7 7 7 7 8 8 9 9 9 10
6 8 8 8 9 10 8 8 8 7 7 8 8 7 7 7 6 5 7 8 7 6 8 10 7 8 9 8 7 8 7 7 8 8 8 8 8 8 8 9 10 10 11 11 11 11 11 11 10 10 10 10 9 8 9 9 9 9 9 8 8 8 7 7 7 7 7 7 8 7 8 8 8 7 7 7 7 7 8 8 8 8 9 9 9 10
7 7 8 7 8 8 6 7 7 6 7 7 7 7 7 6 5 6 7 8 6 6 9 9 7 9 10 9 9 9 8 8 8 8 8 8 8 9 9 9 10 11 11 11 11 11 11 11 11 10 10 10 9 8 9 9 10 9 9 9 8 7 7 7 7 7 7 7 7 7 8 8 7 7 7 7 8 8 8 8 8 9 9 9 10 10
7 7 8 8 7 7 7 7 7 6 7 6 6 7 7 6 5 6 7 7 7 7 9 8 8 10 11 9 10 10 9 8 8 7 8 9 9 9 9 10 10 11 11 11 11 11 11 11 11 10 10 9 9 9 10 9 9 9 9 9 8 7 7 7 7 7 7 7 7 8 8 8 8 8 8 8 8 8 8 8 9 9 9 10 10 11
6 7 8 6 5 5 7 7 7 8 8 6 6 7 6 6 6 6 7 8 8 9 9 8 8 11 11 10 9 9 8 8 7 8 9 10 10 9 9 10 11 11 11 11 11 11 11 11 10 10 10 9 10 11 10 9 9 10 10 9 8 8 8 8 8 7 7 7 7 8 8 8 8 8 8 8 8 8 9 9 9 9 9 9 10 10
6 7 7 5 3 5 6 6 6 7 6 5 6 7 7 7 8 8 9 9 10 10 10 9 10 12 11 10 9 9 9 8 8 8 9 9 10 10 10 10 11 11 11 11 11 11 11 11 11 11 10 10 11 11 11 10 10 10 10 9 8 9 9 9 8 8 7 7 7 7 8 8 8 8 8 8 8 9 9 9 9 9 9 9 10 10
6 7 7 5 4 5 6 5 5 4 4 6 8 8 8 8 8 9 10 10 10 10 9 10 12 12 11 10 10 10 10 9 9 9 9 9 10 10 11 10 11 11 11 11 12 12 12 12 12 12 12 11 12 12 11 11 10 10 10 9 9 10 9 9 9 8 7 7 7 7 8 8 8 8 9 9 9 9 9 9 9 9 9 10 10 10
6 5 6 6 5 6 6 5 4 4 5 8 9 8 8 9 8 9 10 10 11 10 9 10 11 10 10 10 10 10 10 9 9 10 10 10 9 10 10 10 11 11 11 11 12 12 12 13 13 13 12 12 12 12 11 11 11 10 10 10 10 10 10 9 9 8 8 8 8 8 8 9 9 9 9 9 9 9 9 9 9 9 9 10 10 10
6 6 7 6 5 6 6 4 4 6 8 10 9 8 9 9 8 9 10 10 10 9 9 9 10 8 8 9 9 9 8 8 9 9 10 10 10 9 10 10 11 11 12 12 12 12 13 13 13 12 12 11 11 10 10 11 10 10 10 10 10 10 10 10 9 9 8 8 8 8 8 9 9 9 9 9 9 9 9 9 9 9 10 10 10 11
8 7 7 6 6 7 6 5 6 9 10 9 9 8 8 8 7 8 9 10 10 8 8 8 8 8 7 7 7 6 6 7 7 9 9 9 9 9 10 11 12 12 13 13 13 13 13 13 13 12 12 11 11 10 10 11 11 10 11 11 10 10 10 10 9 9 9 9 9 9 9 9 10 9 9 9 9 9 9 9 9 10 10 10 10 11
9 9 8 7 7 7 7 7 8 8 8 9 9 9 8 8 7 7 8 10 9 8 7 6 6 6 6 6 5 4 5 6 7 8 9 9 10 11 11 12 12 13 14 13 13 12 12 12 13 13 12 11 11 11 10 10 10 10 10 10 9 9 9 9 9 9 9 9 9 9 9 10 10 10 9 9 9 9 9 9 9 9 10 10 10 11
8 9 9 8 8 7 7 7 8 7 8 10 10 10 8 8 7 5 6 9 9 8 6 5 6 6 5 5 4 4 4 6 8 9 9 10 11 12 12 13 13 14 13 12 12 11 11 12 13 13 12 11 11 11 10 10 10 10 10 9 9 9 10 11 11 10 10 10 10 10 10 10 10 10 9 9 9 9 9 9 9 9 9 10 10 11
7 8 9 8 8 8 8 8 8 9 9 10 10 10 9 7 6 5 6 9 9 7 6 5 6 6 6 5 4 4 6 8 9 10 10 11 12 12 12 13 13 12 11 11 10 11 11 11 11 11 11 10 10 11 10 10 10 10 10 9 9 10 11 12 12 11 11 10 10 10 10 10 9 9 9 9 8 9 9 9 9 9 9 10 10 10
8 9 9 9 10 10 9 9 10 10 9 9 10 10 9 7 6 5 7 10 9 7 7 6 7 7 7 5 5 6 8 8 10 11 11 11 12 12 12 13 12 12 11 10 10 9 10 10 9 9 10 10 10 10 10 10 10 10 10 10 10 11 12 12 12 11 11 11 10 10 10 10 9 9 8 8 8 8 8 8 9 9 9 9 9 9
8 9 9 10 10 10 10 10 10 10 10 10 10 10 8 7 6 7 8 10 9 8 9 8 8 8 7 6 7 9 10 10 11 11 11 10 11 12 12 13 12 11 10 10 9 8 8 9 9 8 8 9 10 10 10 10 10 10 10 10 10 11 12 11 11 10 10 10 10 10 10 10 9 9 8 8 8 8 8 8 8 9 9 9 9 8
9 9 9 10 9 10 10 10 10 10 10 10 10 9 8 7 8 9 10 10 9 9 10 10 10 9 9 9 9 10 11 11 11 11 10 10 11 11 11 11 10 9 9 9 8 7 7 8 9 8 7 8 9 9 9 9 9 9 10 10 10 11 11 10 10 10 10 10 11 10 10 9 9 9 8 8 8 8 8 8 8 9 9 8 8 8
10 9 10 10 9 9 9 9 9 10 10 9 9 9 9 9 10 10 10 10 10 10 10 11 11 11 11 11 11 11 11 11 12 11 11 10 10 10 9 9 9 9 8 7 7 6 6 7 9 8 7 8 8 9 9 9 9 9 9 10 10 10 10 10 9 9 10 10 10 10 9 9 9 9 9 8 8 8 8 8 8 8 8 8 7 8
10 9 10 11 10 8 8 9 10 10 11 10 9 10 10 10 11 11 10 11 11 11 11 12 13 13 13 13 12 12 12 12 11 11 11 10 9 9 9 9 8 8 7 6 6 6 6 7 8 9 8 7 8 8 8 8 8 8 9 9 9 9 9 9 9 9 10 10 10 9 9 8 8 8 8 8 8 8 8 8 8 8 8 8 8 8
11 11 11 11 10 10 10 11 11 11 11 11 11 11 11 11 11 11 11 12 12 12 12 13 14 14 14 13 12 12 12 11 11 11 10 10 9 9 9 9 8 7 7 6 6 7 7 8 8 8 8 7 7 8 8 8 8 8 9 9 9 9 9 9 9 9 10 10 9 9 9 8 8 8 8 8 8 8 8 8 8 8 8 8 8 8
13 12 11 10 11 11 11 11 11 11 11 11 11 12 12 12 12 12 12 12 13 13 13 13 13 13 13 12 12 11 11 11 10 10 10 9 9 9 8 8 7 7 6 6 6 7 8 8 8 8 7 7 8 8 8 8 8 8 9 9 9 9 9 9 9 9 10 9 9 9 8 8 8 8 8 9 9 9 8 8 8 8 8 8 8 9
13 12 11 11 11 11 10 11 12 12 12 12 11 12 12 12 12 13 13 13 13 13 12 12 12 11 11 11 11 10 9 9 9 9 9 8 7 7 7 7 7 6 6 7 7 7 7 7 7 7 7 8 8 8 8 8 8 8 9 9 9 9 9 8 9 9 10 9 9 8 8 8 8 8 9 9 9 9 8 8 8 8 8 8 8 9
12 12 11 11 11 11 12 13 12 12 12 12 12 12 12 12 13 13 13 12 12 11 11 11 10 10 10 10 9 9 8 8 8 8 7 7 7 7 7 7 6 6 6 7 7 6 6 6 7 7 8 8 8 8 8 8 9 9 9 9 9 9 9 9 9 9 9 9 8 8 8 8 8 9 9 9 9 8 8 8 8 8 8 9 9 9
12 11 12 11 10 11 12 12 11 11 12 12 12 12 12 12 12 12 11 11 10 10 10 10 9 9 8 8 8 8 7 8 7 7 6 6 6 7 6 6 5 5 5 6 6 7 6 6 6 6 7 7 7 7 8 9 9 9 9 9 9 9 9 9 9 9 9 8 8 8 8 8 8 8 8 8 8 8 8 8 8 8 9 9 9 10
11 11 11 10 10 11 12 12 11 10 11 12 12 11 11 11 11 10 10 10 10 9 9 8 8 7 7 7 7 7 7 7 7 6 6 6 6 6 5 5 5 5 5 6 6 6 6 6 6 6 6 6 7 7 8 8 8 8 8 8 8 8 9 9 8 8 8 8 8 8 8 8 8 8 8 8 8 8 8 8 9 9 9 10 10 10
11 12 12 10 11 12 13 13 11 10 10 11 11 10 10 10 9 9 9 9 9 9 8 7 6 6 6 6 6 6 6 6 6 5 5 5 5 5 5 5 5 5 5 5 5 5 5 5 5 5 5 5 6 6 6 7 7 7 8 8 8 8 8 8 8 8 8 8 8 8 8 7 7 7 7 7 8 8 8 9 9 9 10 11 11 12
Wind_Direction
239 241 241 238 237 238 239 241 246 246 239 243 256 268 267 270 284 291 295 285 260 268 273 263 266 275 279 284 274 260 261 264 268 279 277 272 272 260 246 246 242 238 238 234 233 231 230 234 235 238 245 259 275 289 299 305 315 319 320 331 342 337 330 324 315 308 305 310 317 323 330 332 330 329 330 331 333 336 336 336 336 337 338 340 339 338
243 242 241 236 236 240 243 244 248 252 256 257 254 264 272 275 282 285 288 285 266 266 273 265 265 272 273 276 272 258 258 263 260 264 264 259 262 256 241 239 240 237 233 230 231 228 225 227 229 235 240 249 265 278 286 294 304 311 308 308 319 324 323 320 314 310 310 312 319 321 321 323 326 327 327 327 329 331 333 334 336 337 338 338 337 337
248 246 243 239 238 242 246 245 247 252 255 257 257 263 273 278 284 292 298 293 272 269 276 266 261 271 277 273 268 259 257 261 255 254 260 256 253 249 238 236 237 236 234 232 232 229 224 223 227 233 241 250 263 275 281 288 297 304 303 296 298 306 312 316 315 314 315 315 318 320 318 321 326 327 326 328 329 331 332 334 336 336 336 336 336 336
247 247 245 243 238 239 246 245 244 252 256 257 257 258 268 277 283 292 299 298 285 278 274 264 263 273 277 274 270 263 262 270 265 260 268 265 255 249 241 237 235 231 231 233 234 233 227 225 230 237 246 256 264 274 279 282 289 295 296 291 288 290 297 307 315 318 316 314 317 319 321 325 328 328 327 329 330 331 332 333 334 334 334 335 335 337
247 247 247 248 243 237 242 243 242 249 256 260 257 251 260 272 275 282 294 300 298 291 276 265 273 275 269 267 270 268 267 271 268 264 268 265 259 254 246 240 237 235 232 230 231 233 232 231 235 241 248 256 262 271 278 280 286 289 289 287 284 283 287 295 307 312 307 304 307 313 320 325 327 326 326 328 329 330 331 331 331 333 334 335 337 339
249 248 246 249 248 241 242 244 241 242 253 262 257 247 252 265 273 280 294 304 298 287 273 260 270 277 271 265 267 269 269 265 262 262 263 260 258 254 246 241 239 239 236 232 232 231 233 234 237 245 250 255 261 269 277 281 285 285 285 284 280 281 283 284 290 296 298 300 300 304 312 317 320 323 323 325 327 329 330 330 330 332 334 337 339 342
250 248 244 245 246 244 246 246 241 239 249 260 254 245 249 259 269 273 282 294 288 281 276 257 255 273 278 271 266 264 266 266 263 262 260 256 255 250 244 240 236 236 235 235 234 232 233 234 238 246 250 253 259 267 274 280 282 278 279 279 275 279 282 279 280 286 296 301 299 301 307 310 315 320 321 323 326 328 328 329 329 331 335 338 341 342
247 248 246 245 245 244 245 245 240 236 245 254 248 243 248 254 260 262 269 280 279 282 287 265 253 269 277 274 271 263 265 274 271 265 259 249 249 250 245 239 232 232 234 234 234 234 234 235 239 245 247 252 260 265 270 276 278 274 272 271 271 278 281 278 279 287 297 300 297 298 303 309 313 316 318 321 324 326 327 328 329 331 335 338 340 341
248 245 244 242 242 242 241 239 235 235 244 249 244 245 253 255 258 260 266 276 279 278 280 269 256 266 274 274 280 272 266 275 272 264 257 245 243 248 245 237 231 232 234 234 234 234 235 236 240 245 246 251 258 262 266 272 276 274 270 266 267 274 278 278 281 288 295 296 296 297 300 308 313 314 315 319 323 325 326 328 329 330 333 337 339 341
250 246 243 241 242 242 240 236 231 234 244 246 242 248 257 260 263 266 269 273 274 268 267 263 251 258 273 273 276 274 270 274 270 265 261 249 243 245 242 236 232 233 234 235 235 234 235 237 240 244 245 249 256 260 264 271 276 275 271 266 264 270 276 279 283 289 292 290 294 298 300 307 312 312 314 318 322 324 325 327 327 329 332 334 337 340
252 251 248 246 243 241 240 237 233 235 242 247 247 248 256 264 267 271 274 270 267 266 267 262 250 253 271 274 267 265 270 271 266 268 267 252 242 240 237 234 231 231 232 233 235 235 236 238 240 242 242 246 254 258 260 265 271 272 267 262 263 270 279 284 288 289 289 287 293 299 301 307 311 311 313 318 322 323 324 326 326 329 332 334 338 342
257 253 250 248 244 240 241 241 240 241 243 244 246 246 253 264 266 268 273 267 262 268 271 267 258 254 263 270 269 267 272 275 270 270 268 250 239 235 231 231 229 229 230 231 234 236 237 239 241 241 242 246 251 254 257 262 268 268 260 255 265 278 286 291 291 288 286 287 294 300 303 306 309 310 313 318 320 321 322 324 325 328 331 335 341 345
255 250 250 251 245 238 237 242 244 245 241 236 239 242 247 257 261 263 265 262 261 266 269 266 259 258 262 269 273 272 272 274 272 273 272 252 237 231 228 228 228 228 228 230 234 238 240 241 242 243 245 248 249 249 255 265 271 269 263 265 281 288 289 290 288 285 286 289 295 301 303 305 308 310 314 318 319 318 320 322 324 326 330 337 342 344
254 257 254 249 247 236 228 234 238 237 233 230 232 236 240 245 253 259 262 267 268 268 270 265 259 266 273 276 277 273 271 270 267 267 267 250 231 225 226 226 228 231 231 233 236 239 243 243 243 246 247 249 251 250 256 271 278 277 278 287 291 290 288 285 283 285 290 293 297 301 303 305 309 311 314 317 316 316 318 320 322 325 331 337 339 339
246 257 247 237 242 234 225 227 225 223 228 230 230 233 238 238 243 255 258 262 268 271 271 267 263 266 272 278 280 276 278 279 271 263 258 245 227 221 223 222 226 232 233 236 239 242 245 244 243 246 249 253 258 256 257 270 282 286 288 289 286 283 282 280 281 287 291 293 297 302 304 306 309 312 314 315 314 315 317 318 321 325 330 333 334 334
239 248 243 237 236 226 224 227 220 218 230 236 232 233 241 240 241 255 258 257 264 270 268 264 265 267 269 277 284 284 286 291 281 261 241 227 217 213 216 218 224 231 233 237 243 245 246 245 243 245 248 253 258 257 255 264 276 283 287 287 283 278 275 275 280 288 291 292 297 302 304 307 309 312 314 313 313 315 316 317 321 326 328 329 330 331
232 243 245 239 231 221 218 220 217 218 226 233 232 233 241 241 238 251 263 269 272 271 270 268 269 275 280 283 287 294 301 302 293 267 232 214 209 210 216 220 225 231 234 241 247 249 249 246 245 245 244 247 253 255 254 259 269 279 283 281 278 275 272 272 278 288 290 291 297 301 303 306 308 311 312 311 313 314 315 319 323 325 326 327 328 328
222 237 241 223 220 225 218 212 219 223 219 221 228 232 238 244 247 250 261 278 280 271 273 273 270 274 278 279 285 299 303 301 295 276 246 222 214 217 223 225 228 231 237 247 251 252 251 246 245 244 242 245 252 253 250 253 265 275 277 274 273 273 270 269 273 284 289 290 296 300 303 306 308 311 311 310 312 313 316 321 324 325 327 328 327 327
217 227 233 212 207 222 220 213 229 237 229 223 226 232 235 239 250 252 254 267 274 273 277 280 276 270 262 264 279 286 280 282 286 276 256 237 226 226 227 226 231 237 243 249 252 255 254 247 243 241 240 244 248 248 245 253 265 271 272 272 273 272 269 271 276 285 291 293 297 301 303 305 307 309 309 309 310 312 315 321 324 328 332 333 331 330
209 208 219 213 208 219 224 221 230 235 233 226 224 234 240 236 241 247 252 260 264 269 276 283 284 274 264 264 272 277 271 267 271 267 255 244 233 228 226 228 235 240 244 248 251 256 256 249 243 238 237 242 244 245 246 253 263 267 270 273 272 268 267 272 280 286 292 296 300 302 301 302 304 305 306 307 308 308 313 319 325 334 339 338 337 336
209 204 211 217 221 230 231 229 224 218 217 218 220 229 237 239 245 252 259 262 260 262 266 275 280 275 272 271 271 278 276 264 258 256 250 244 236 232 230 231 235 238 242 247 251 256 256 252 246 240 239 241 241 244 245 248 259 267 270 273 270 265 266 273 282 287 293 297 300 299 297 298 300 301 302 303 302 304 308 313 321 331 336 337 339 340
207 205 211 224 232 236 236 231 219 211 211 211 217 227 233 237 243 252 264 264 260 261 259 264 274 274 276 279 277 280 277 263 253 249 246 242 236 235 235 235 238 240 244 248 251 256 257 252 247 242 243 243 238 236 239 247 258 264 265 268 265 265 269 275 283 289 294 297 296 295 295 296 297 297 298 298 298 299 301 304 313 321 327 332 336 340
205 206 215 229 232 233 242 238 219 215 217 213 222 232 233 238 241 242 254 259 258 264 266 267 275 276 278 284 284 284 279 267 256 248 243 240 235 234 236 239 243 245 248 251 254 259 257 251 247 243 243 247 246 235 231 243 253 257 262 266 265 268 273 279 284 289 292 292 291 293 295 295 295 294 294 294 294 294 293 296 305 313 318 324 330 335
207 209 216 230 240 241 246 246 227 222 220 218 234 241 234 241 248 244 247 251 251 256 265 276 282 281 287 295 297 294 287 276 265 252 239 235 237 238 237 240 245 246 248 252 255 260 257 250 248 244 242 252 257 247 239 247 254 257 266 270 269 274 278 281 285 287 288 287 288 292 294 294 292 290 289 288 287 288 289 292 300 307 310 315 321 326
207 210 212 219 237 241 244 253 247 240 236 233 241 249 245 241 250 255 253 256 257 254 255 269 278 283 291 302 306 303 296 283 265 251 241 237 238 239 238 241 247 248 248 250 252 256 255 250 247 245 245 254 259 258 259 263 263 265 271 272 273 278 281 284 285 286 286 286 288 291 293 292 289 286 283 281 281 284 288 292 299 303 305 309 313 317
204 210 209 209 216 225 232 240 241 240 245 246 245 254 256 246 243 248 250 256 258 255 255 263 273 285 295 304 308 302 294 285 265 252 250 246 240 239 241 244 250 252 248 248 251 252 250 249 246 242 242 248 254 259 264 266 266 272 277 276 276 279 282 283 284 285 286 287 287 290 291 289 286 283 278 275 278 284 289 294 298 300 302 305 309 313
202 211 210 210 217 222 225 232 236 235 240 250 254 259 259 248 241 246 254 257 251 252 265 266 268 285 294 299 303 296 288 282 271 259 256 252 244 244 246 248 253 256 253 252 254 252 248 247 245 239 236 243 250 255 259 262 267 273 276 275 276 279 281 281 281 282 284 285 288 290 289 287 285 281 275 274 279 286 291 295 297 298 301 304 308 312
201 212 211 212 222 227 229 239 246 242 237 244 252 257 258 251 246 250 256 256 251 258 274 272 266 277 286 288 289 290 289 281 270 261 257 254 249 248 250 252 254 256 256 257 255 250 247 247 246 240 237 241 246 250 254 261 267 270 270 269 271 276 279 279 277 279 282 286 289 289 288 288 286 280 274 276 281 286 291 295 296 297 301 304 307 310
203 216 218 221 238 246 249 253 251 242 239 244 248 254 258 258 254 253 254 256 253 257 268 270 266 270 280 283 279 282 287 279 269 263 257 253 253 252 253 255 255 254 255 255 252 249 247 246 245 240 237 240 243 247 253 260 265 266 265 263 264 271 276 275 275 277 281 286 289 289 288 288 285 279 275 276 282 286 290 293 295 298 302 306 308 309
211 225 226 227 246 258 256 256 253 244 241 247 257 260 258 256 255 256 259 260 262 264 267 270 268 270 277 280 276 280 285 282 275 266 256 254 255 255 254 256 255 253 251 249 248 247 243 241 239 235 233 237 244 248 253 257 259 259 259 257 259 267 272 271 273 276 279 286 292 292 289 286 282 279 276 276 280 283 287 290 293 297 302 305 307 309
217 225 231 230 238 251 252 253 252 248 241 241 259 268 268 268 270 270 270 269 273 278 278 277 277 278 282 283 282 282 281 277 273 264 259 260 259 256 256 256 253 249 248 247 245 242 240 238 237 235 234 237 244 249 253 255 253 252 252 251 254 264 268 269 272 274 277 287 294 295 291 286 282 280 278 278 280 281 283 287 290 294 299 302 306 311
220 220 233 232 216 235 246 242 242 248 245 246 262 273 276 276 273 272 275 274 274 278 282 284 282 280 280 282 282 280 274 271 268 262 260 260 258 257 256 253 250 246 244 244 241 238 238 238 238 238 237 239 244 248 251 251 248 246 245 246 254 262 265 267 269 270 275 285 291 294 294 288 284 281 279 278 280 280 281 284 288 293 297 300 305 311
216 213 223 220 211 234 245 237 234 248 256 256 258 261 266 272 273 275 280 280 277 276 276 277 277 276 276 274 273 273 272 269 262 256 254 253 252 254 255 253 250 246 243 242 240 238 240 242 242 239 237 238 242 245 246 244 241 239 240 246 255 260 261 263 265 266 272 279 285 291 296 293 286 281 279 278 277 277 278 281 286 291 295 298 303 307
213 206 214 216 214 229 241 244 248 256 255 253 252 250 256 266 272 277 280 281 281 279 276 276 278 277 272 267 267 268 267 263 257 252 250 249 248 250 253 253 251 249 247 245 243 242 242 243 242 240 237 237 239 241 241 240 239 238 242 249 254 256 257 258 260 264 270 275 279 287 295 295 289 281 277 278 276 275 276 279 283 289 293 297 302 305
214 209 216 225 223 223 234 248 261 262 256 255 264 265 260 261 264 270 278 280 279 278 279 282 282 277 270 271 276 274 270 269 263 255 250 249 250 249 249 250 251 251 250 249 246 244 242 241 240 239 237 237 237 238 239 241 242 241 245 251 252 252 253 254 257 263 269 272 276 285 292 295 291 283 277 277 275 273 276 279 283 288 291 297 303 305
208 210 220 231 230 227 233 241 257 265 262 263 275 275 266 269 274 278 284 284 275 270 275 281 281 278 276 279 283 280 279 281 276 266 257 254 254 254 253 253 252 252 253 251 247 244 242 240 236 233 231 233 236 237 238 241 242 241 245 251 250 251 253 254 256 261 266 271 277 283 290 293 291 284 279 276 274 273 276 280 283 288 293 299 305 306
208 214 225 233 234 233 236 248 264 273 268 263 269 270 267 273 275 275 281 283 276 269 271 276 277 276 277 281 282 277 280 290 289 278 266 260 260 261 262 262 257 254 253 249 243 242 241 237 232 227 226 231 235 238 240 242 242 243 247 250 252 255 256 253 255 260 266 273 277 280 287 292 289 285 281 277 273 272 276 280 283 289 296 302 306 307
220 224 224 230 240 240 241 258 272 276 268 263 263 266 272 271 265 266 282 286 281 269 261 263 265 267 274 283 280 276 290 300 298 284 269 263 264 265 267 269 264 260 258 251 245 243 238 231 227 224 224 230 235 239 242 243 243 244 246 248 252 256 253 251 257 263 267 273 277 280 286 290 288 285 282 278 274 274 276 280 285 291 298 303 306 307
235 236 230 234 245 246 245 254 258 260 267 267 261 266 274 265 257 277 297 292 284 268 253 256 261 262 268 272 269 282 302 302 295 286 273 263 263 265 267 269 267 265 264 261 256 252 242 232 228 227 228 232 236 239 242 244 244 244 245 247 251 252 250 252 259 263 267 274 279 281 284 288 286 284 282 280 278 277 277 281 287 293 299 303 305 307
242 246 242 240 245 248 249 254 255 257 267 270 265 269 271 260 260 285 291 286 282 270 258 260 260 261 266 269 272 285 292 288 288 292 284 269 266 268 268 267 266 264 261 258 259 259 248 236 232 232 233 235 237 238 240 242 243 243 244 248 251 251 252 255 260 264 269 275 279 281 284 285 283 281 280 281 282 281 281 284 289 294 299 302 304 305
238 244 243 242 248 252 249 251 257 260 262 264 265 267 263 258 268 275 271 275 280 273 267 267 265 263 265 266 270 278 280 280 289 298 294 279 273 273 272 271 270 268 265 261 258 258 250 241 236 234 236 240 240 238 238 240 242 245 247 249 250 251 254 258 263 267 272 276 279 281 283 282 280 279 279 282 284 283 284 286 290 295 299 301 302 302
231 240 247 250 253 252 247 249 258 261 260 261 265 265 261 260 266 266 267 277 283 276 273 274 270 267 266 263 266 275 279 282 289 297 296 285 278 277 277 280 287 291 289 280 266 256 254 249 242 239 247 250 242 237 239 242 244 248 250 247 246 252 258 262 265 269 273 277 279 281 281 279 277 277 280 282 282 282 284 287 290 295 299 300 300 301
232 239 249 251 249 250 251 254 258 259 261 265 267 265 262 262 263 266 272 281 283 278 276 275 271 269 268 266 268 276 283 284 287 294 295 289 282 281 282 287 296 299 299 291 273 259 260 257 250 252 262 258 245 241 245 246 248 251 250 245 246 255 261 263 266 269 273 278 280 279 279 278 275 277 280 281 280 280 282 286 291 294 295 296 297 299
239 242 248 248 246 247 250 252 254 256 261 267 263 257 258 262 264 266 272 278 280 280 277 276 274 273 271 268 268 273 280 283 285 288 290 285 278 277 280 284 289 289 286 282 270 263 266 265 260 264 270 263 251 249 250 250 251 252 248 245 250 258 261 263 267 270 273 278 279 277 279 279 277 277 279 278 279 280 280 284 288 290 291 292 294 297
244 245 247 248 246 245 247 252 257 262 266 268 264 257 261 267 266 266 272 277 279 280 279 279 278 276 272 269 268 271 276 279 280 282 283 279 273 272 276 280 282 283 281 277 269 267 271 269 262 262 265 263 257 255 254 252 250 248 248 251 255 258 260 263 266 269 274 279 278 276 279 280 277 278 278 277 278 279 278 280 283 286 288 291 293 295
248 247 248 249 248 250 255 259 264 269 271 270 266 262 263 268 269 270 274 278 280 281 282 282 280 276 272 268 266 268 271 272 274 278 278 275 271 270 272 275 277 280 280 277 272 270 271 269 262 259 261 264 262 258 255 251 247 248 253 257 259 261 262 263 265 269 274 278 278 277 278 277 276 277 276 276 276 277 277 278 280 283 286 289 291 293
251 247 247 249 247 249 257 264 267 269 269 269 269 267 267 270 273 274 276 278 281 282 282 283 282 278 273 268 263 263 265 265 269 274 275 274 271 268 270 273 276 278 277 274 275 274 272 270 267 263 263 264 262 258 253 249 250 256 260 262 263 263 262 262 265 270 273 274 277 279 278 274 273 274 276 276 276 275 275 276 278 280 283 286 288 290
246 245 247 250 249 250 255 262 266 268 267 267 268 268 270 273 276 278 279 279 281 282 282 283 283 277 271 266 260 258 260 264 267 271 273 274 272 269 271 273 275 278 278 277 277 276 275 275 272 268 266 262 256 251 250 251 257 262 264 264 264 262 260 262 266 269 270 272 276 281 279 274 271 273 277 277 275 274 274 275 277 279 281 283 286 290
244 247 248 249 254 258 259 260 265 269 271 270 269 269 270 272 274 278 280 280 280 281 280 281 281 276 268 262 258 256 259 264 267 270 271 270 270 271 274 276 276 278 280 280 278 277 277 280 277 271 267 259 250 249 252 255 259 263 262 261 260 257 257 261 265 267 269 272 276 279 279 276 274 275 276 275 274 275 275 273 274 278 283 285 286 289
244 246 247 248 253 258 257 255 256 263 267 267 267 270 271 272 274 277 279 279 277 275 275 277 277 273 265 259 256 256 260 264 265 265 266 268 269 270 269 269 274 279 281 283 283 281 282 283 277 270 265 258 251 251 254 255 258 260 259 257 256 254 255 259 264 268 270 271 273 275 278 278 277 276 276 275 276 278 278 276 275 278 283 287 288 289
240 239 239 241 246 251 254 252 250 257 264 263 264 269 271 272 275 276 275 274 271 269 269 271 270 263 256 254 253 255 261 262 257 255 262 267 265 262 260 261 268 275 278 280 283 286 286 280 267 260 258 252 247 248 251 253 256 256 255 254 253 252 252 257 263 268 269 270 270 272 275 276 274 275 277 279 280 282 282 282 281 280 282 285 288 291